Back to catalog

COSMOS 1275 DEB

AlivePO
NORAD 17615·DEBRIS·🇷🇺 Russia

Launched Jun 4, 1981 from Plesetsk Cosmodrome

Loading…

Next Passes (next 24 hours)

TLE

FreshSource: Space-Track

Epoch: Sep 14, 2026, 20:05 UTC

1 17615U 81053KJ  26257.83734911  .00001791  00000-0  86408-3 0  9992
2 17615  82.8539  36.2832 0039981 102.1725  49.4276 14.17770756105899

Track COSMOS 1275 DEB in real time with AllMySat

Download on the App Store